FW7665 Weather Reports


time (UTC)temp
F
wind
direction
speed
knots
gust
knots
rain 1hr
in
rain 24hr
in
rain mn
in
humidity
%
barometer
mb
20230131231803 23 30 1.7 8.7 0.00 0.00 0.00 34 1013.3
20230131230924 23 221 1.7 6.1 0.00 0.00 0.00 37 1013.3
20230131230004 23 317 1.7 4.3 0.00 0.00 0.00 36 1013.3
20230131225403 23 35 1.7 7.8 0.00 0.00 0.00 35 1012.5
20230131224503 23 252 0.9 7.8 0.00 0.00 0.00 34 1012.5
20230131223603 23 32 1.7 10.4 0.00 0.00 0.00 34 1012.5
20230131222703 23 348 0.9 10.4 0.00 0.00 0.00 40 1012.5
20230131221803 23 100 0.9 6.1 0.00 0.00 0.00 36 1012.5
20230131220924 24 219 0.0 1.7 0.00 0.00 0.00 37 1012.5
20230131220004 24 224 0.0 9.6 0.00 0.00 0.00 37 1012.5
20230131215403 24 238 0.9 7.8 0.00 0.00 0.00 36 1012.0
20230131214503 24 102 0.0 1.7 0.00 0.00 0.00 36 1012.0
20230131213603 24 67 0.9 4.3 0.00 0.00 0.00 35 1012.0
20230131212703 24 24 1.7 11.3 0.00 0.00 0.00 30 1012.0
20230131211803 25 341 1.7 7.8 0.00 0.00 0.00 31 1012.0
20230131210903 25 124 0.9 3.5 0.00 0.00 0.00 33 1012.0
20230131210003 25 29 0.9 10.4 0.00 0.00 0.00 34 1012.0
20230131205424 26 87 1.7 7.8 0.00 0.00 0.00 31 1012.3
20230131204524 26 90 2.6 7.0 0.00 0.00 0.00 29 1012.3
20230131203603 26 9 3.5 10.4 0.00 0.00 0.00 27 1012.3
20230131202703 26 43 1.7 6.1 0.00 0.00 0.00 32 1012.3
20230131201803 26 22 1.7 8.7 0.00 0.00 0.00 29 1012.3
20230131200903 26 351 3.5 12.2 0.00 0.00 0.00 28 1012.3
20230131200003 26 25 2.6 11.3 0.00 0.00 0.00 28 1012.3
20230131195403 26 20 3.5 13.0 0.00 0.00 0.00 26 1012.7
20230131194524 26 356 3.5 13.0 0.00 0.00 0.00 25 1012.7
20230131193625 26 63 1.7 11.3 0.00 0.00 0.00 26 1012.7
20230131192703 26 67 2.6 11.3 0.00 0.00 0.00 26 1012.7
20230131191803 26 16 3.5 13.0 0.00 0.00 0.00 25 1012.7
20230131190903 26 50 2.6 10.4 0.00 0.00 0.00 27 1012.7
20230131190004 26 27 3.5 9.6 0.00 0.00 0.00 25 1012.7
20230131185403 25 25 3.5 11.3 0.00 0.00 0.00 25 1012.0
20230131184503 25 31 2.6 11.3 0.00 0.00 0.00 26 1012.0
20230131183603 25 39 2.6 10.4 0.00 0.00 0.00 25 1012.0
20230131182703 25 30 2.6 10.4 0.00 0.00 0.00 25 1012.0
20230131181804 25 57 1.7 6.1 0.00 0.00 0.00 27 1012.0
20230131180903 24 31 0.9 5.2 0.00 0.00 0.00 24 1012.0
20230131180003 23 354 0.9 3.5 0.00 0.00 0.00 30 1012.0
20230131175403 23 21 0.9 4.3 0.00 0.00 0.00 26 1012.0
20230131174503 23 51 2.6 7.0 0.00 0.00 0.00 26 1012.0
20230131173603 23 17 2.6 10.4 0.00 0.00 0.00 24 1012.0
20230131172703 23 14 1.7 11.3 0.00 0.00 0.00 25 1012.0
20230131171803 23 13 2.6 13.0 0.00 0.00 0.00 27 1012.0
20230131170904 22 61 1.7 7.8 0.00 0.00 0.00 30 1012.0
20230131170004 22 42 1.7 10.4 0.00 0.00 0.00 30 1012.0
20230131165403 21 339 1.7 12.2 0.00 0.00 0.00 28 1012.0
20230131164503 20 352 1.7 6.1 0.00 0.00 0.00 29 1012.0
20230131163624 19 41 1.7 8.7 0.00 0.00 0.00 31 1012.0
20230131162724 18 59 2.6 6.1 0.00 0.00 0.00 33 1012.0
20230131161824 16 70 1.7 6.1 0.00 0.00 0.00 34 1012.0
20230131160922 15 42 3.5 8.7 0.00 0.00 0.00 36 1012.0
20230131160001 13 63 1.7 7.0 0.00 0.00 0.00 40 1012.0
20230131155401 12 81 0.9 3.5 0.00 0.00 0.00 48 1012.0
20230131154503 11 91 0.9 5.2 0.00 0.00 0.00 55 1012.0
20230131153602 11 90 0.0 3.5 0.00 0.00 0.00 53 1012.0
20230131152702 10 98 0.9 5.2 0.00 0.00 0.00 56 1012.0
20230131151801 10 105 0.9 3.5 0.00 0.00 0.00 53 1012.0
20230131150901 10 161 1.7 6.1 0.00 0.00 0.00 50 1012.0
20230131150022 10 104 1.7 6.1 0.00 0.00 0.00 51 1012.0
20230131145401 11 135 0.9 6.1 0.00 0.00 0.00 46 1012.0
20230131144501 12 136 0.9 6.1 0.00 0.00 0.00 46 1012.0
20230131143601 12 226 2.6 11.3 0.00 0.00 0.00 42 1012.0
20230131142722 11 244 4.3 15.6 0.00 0.00 0.00 41 1012.0
20230131141801 11 233 5.2 11.3 0.00 0.00 0.00 49 1012.0
20230131140901 10 237 5.2 9.6 0.00 0.00 0.00 49 1012.0
20230131140002 7 239 2.6 9.6 0.00 0.00 0.00 57 1012.0
20230131135423 7 249 1.7 7.0 0.00 0.00 0.00 59 1011.6
20230131134501 8 242 2.6 6.1 0.00 0.00 0.00 58 1011.6
20230131133601 8 263 1.7 7.8 0.00 0.00 0.00 59 1011.6
20230131132701 7 202 0.0 0.9 0.00 0.00 0.00 69 1011.6
20230131131801 8 202 0.0 2.6 0.00 0.00 0.00 66 1011.6
20230131130902 8 217 0.9 3.5 0.00 0.00 0.00 64 1011.6
20230131130023 8 216 1.7 6.1 0.00 0.00 0.00 62 1011.6
20230131125423 8 232 1.7 7.8 0.00 0.00 0.00 61 1011.3
20230131124502 8 248 2.6 9.6 0.00 0.00 0.00 64 1011.3
20230131123601 7 236 2.6 7.8 0.00 0.00 0.00 72 1011.3
20230131122701 5 237 3.5 7.8 0.00 0.00 0.00 80 1011.3
20230131121823 0 199 0.0 6.1 0.00 0.00 0.00 83 1011.3
20230131120902 0 0 0.0 0.0 0.00 0.00 0.00 82 1011.3
20230131120003 -1 0 0.0 0.0 0.00 0.00 0.00 82 1011.3
20230131115401 -1 0 0.0 0.0 0.00 0.00 0.00 82 1011.7
20230131114523 -1 0 0.0 0.0 0.00 0.00 0.00 82 1011.7
20230131113601 -1 0 0.0 0.0 0.00 0.00 0.00 82 1011.7
20230131112702 -1 0 0.0 0.0 0.00 0.00 0.00 81 1011.7
20230131111802 -1 0 0.0 0.0 0.00 0.00 0.00 81 1011.7
20230131110901 -1 0 0.0 0.0 0.00 0.00 0.00 81 1011.7
20230131110002 -1 0 0.0 0.0 0.00 0.00 0.00 81 1011.7
20230131105401 -1 0 0.0 0.0 0.00 0.00 0.00 81 1011.9
20230131104501 -1 0 0.0 0.0 0.00 0.00 0.00 80 1011.9
20230131103602 -1 0 0.0 0.0 0.00 0.00 0.00 80 1011.9
20230131102702 -2 0 0.0 0.0 0.00 0.00 0.00 80 1011.9
20230131101802 -2 0 0.0 0.0 0.00 0.00 0.00 80 1011.9
20230131100902 -2 0 0.0 0.0 0.00 0.00 0.00 80 1011.9
20230131100023 -1 0 0.0 0.0 0.00 0.00 0.00 80 1011.9
20230131095402 -1 0 0.0 0.0 0.00 0.00 0.00 79 1011.7
20230131094502 0 0 0.0 0.0 0.00 0.00 0.00 79 1011.7
20230131093602 0 0 0.0 0.0 0.00 0.00 0.00 79 1011.7
20230131092702 1 0 0.0 0.0 0.00 0.00 0.00 80 1011.7
20230131091802 1 0 0.0 0.0 0.00 0.00 0.00 81 1011.7
20230131090923 1 0 0.0 0.0 0.00 0.00 0.00 81 1011.7
20230131090023 1 0 0.0 0.0 0.00 0.00 0.00 81 1011.7
20230131085402 1 0 0.0 0.0 0.00 0.00 0.00 81 1011.7
20230131084502 1 0 0.0 0.0 0.00 0.00 0.00 80 1011.7
20230131083602 1 0 0.0 0.0 0.00 0.00 0.00 80 1011.7
20230131082702 1 0 0.0 0.0 0.00 0.00 0.00 80 1011.7
20230131081801 2 0 0.0 0.0 0.00 0.00 0.00 80 1011.7
20230131080902 2 0 0.0 0.0 0.00 0.00 0.00 79 1011.6
20230131080002 2 0 0.0 0.0 0.00 0.00 0.00 79 1011.6
20230131075402 3 0 0.0 0.0 0.00 0.00 0.00 79 1011.4
20230131074502 3 0 0.0 0.0 0.00 0.00 0.00 80 1011.4
20230131073602 3 0 0.0 0.0 0.00 0.00 0.00 80 1011.4
20230131072702 4 0 0.0 0.0 0.00 0.00 0.00 81 1011.4
20230131071802 4 0 0.0 0.0 0.00 0.00 0.00 81 1011.4
20230131070902 4 0 0.0 0.0 0.00 0.00 0.00 81 1011.4
20230131070012 4 0 0.0 0.0 0.00 0.00 0.00 82 1011.4
20230131065402 4 0 0.0 0.0 0.00 0.00 0.00 82 1011.9
20230131064524 4 0 0.0 0.0 0.00 0.00 0.00 82 1011.9
20230131063602 4 0 0.0 0.0 0.00 0.00 0.00 81 1011.9
20230131062703 4 0 0.0 0.0 0.00 0.00 0.00 81 1011.9
20230131061802 5 0 0.0 0.0 0.00 0.00 0.00 80 1011.9
20230131060902 6 0 0.0 0.0 0.00 0.00 0.00 81 1011.9
20230131060002 6 0 0.0 0.0 0.00 0.00 0.00 81 1011.9
20230131055402 6 0 0.0 0.0 0.00 0.00 0.00 82 1011.7
20230131054502 6 0 0.0 0.0 0.00 0.00 0.00 82 1011.7
20230131053602 6 0 0.0 0.0 0.00 0.00 0.00 82 1011.7
20230131052702 6 0 0.0 0.0 0.00 0.00 0.00 82 1011.7
20230131051802 5 0 0.0 0.0 0.00 0.00 0.00 81 1011.7
20230131050902 6 0 0.0 0.0 0.00 0.00 0.00 81 1011.7
20230131050002 6 0 0.0 0.0 0.00 0.00 0.00 80 1011.7
20230131045402 6 0 0.0 0.0 0.00 0.00 0.00 80 1011.5
20230131044502 6 0 0.0 0.0 0.00 0.00 0.00 80 1011.5
20230131043623 7 0 0.0 0.0 0.00 0.00 0.00 80 1011.5
20230131042702 7 0 0.0 0.0 0.00 0.00 0.00 80 1011.5
20230131041802 7 0 0.0 0.0 0.00 0.00 0.00 81 1011.5
20230131040902 8 0 0.0 0.0 0.00 0.00 0.00 81 1011.5
20230131040002 8 0 0.0 0.0 0.00 0.00 0.00 81 1011.5
20230131035402 8 0 0.0 0.0 0.00 0.00 0.00 81 1011.1
20230131034502 8 0 0.0 0.0 0.00 0.00 0.00 81 1011.1
20230131033602 7 0 0.0 0.0 0.00 0.00 0.00 80 1011.1
20230131032702 8 0 0.0 0.0 0.00 0.00 0.00 80 1011.1
20230131031823 8 0 0.0 0.0 0.00 0.00 0.00 80 1011.1
20230131030902 8 0 0.0 0.0 0.00 0.00 0.00 80 1011.1
20230131030002 8 0 0.0 0.0 0.00 0.00 0.00 80 1011.1
20230131025402 8 0 0.0 0.0 0.00 0.00 0.00 79 1011.0
20230131024523 8 0 0.0 0.0 0.00 0.00 0.00 79 1011.0
20230131023623 8 0 0.0 0.0 0.00 0.00 0.00 79 1011.0
20230131022702 9 0 0.0 0.0 0.00 0.00 0.00 79 1011.0
20230131021802 9 0 0.0 0.0 0.00 0.00 0.00 79 1011.0
20230131020902 9 0 0.0 0.0 0.00 0.00 0.00 79 1010.7
20230131020002 10 0 0.0 0.0 0.00 0.00 0.00 79 1010.7
20230131015402 10 0 0.0 0.0 0.00 0.00 0.00 79 1010.2
20230131014502 10 0 0.0 0.0 0.00 0.00 0.00 80 1010.2
20230131013602 11 0 0.0 0.0 0.00 0.00 0.00 80 1010.2
20230131012702 11 0 0.0 0.0 0.00 0.00 0.00 80 1010.2
20230131011823 11 0 0.0 0.0 0.00 0.00 0.00 80 1010.2
20230131010902 11 0 0.0 0.0 0.00 0.00 0.00 80 1010.0
20230131010002 11 0 0.0 0.0 0.00 0.00 0.00 80 1010.0
20230131005402 12 0 0.0 0.0 0.00 0.00 0.00 80 1009.4
20230131004502 12 0 0.0 0.0 0.00 0.00 0.00 79 1009.4
20230131003602 12 0 0.0 0.0 0.00 0.00 0.00 79 1009.4
20230131002702 13 0 0.0 0.0 0.00 0.00 0.00 78 1009.4
20230131001823 13 0 0.0 0.0 0.00 0.00 0.00 78 1009.4
20230131000902 14 0 0.0 0.0 0.00 0.00 0.00 78 1009.4
20230131000002 14 0 0.0 0.0 0.00 0.00 0.00 78 1009.4
20230130235423 14 0 0.0 0.0 0.00 0.00 0.00 78 1007.5
20230130234502 14 0 0.0 0.0 0.00 0.00 0.00 77 1007.5
20230130233623 14 0 0.0 0.0 0.00 0.00 0.00 77 1007.5
20230130232702 15 0 0.0 0.0 0.00 0.00 0.00 76 1007.5